| time (UTC) | temp C | wind direction | speed KPH | gust KPH | rain 1hr cm | rain 24hr cm | rain mn cm | humidity % | barometer mb |
| 20260831115606 | 11 | 319 | 0.0 | 0.0 | 0.00 | 0.00 | 0.00 | 98 | 1013.3 |
| 20260831115101 | 11 | 319 | 0.0 | 0.0 | 0.00 | 0.00 | 0.00 | 98 | 1013.3 |
| 20260831114600 | 11 | 319 | 0.0 | 0.0 | 0.00 | 0.00 | 0.00 | 97 | 1013.5 |
| 20260831114055 | 12 | 319 | 0.0 | 0.0 | 0.00 | 0.00 | 0.00 | 97 | 1013.6 |
| 20260831113554 | 12 | 319 | 0.0 | 0.0 | 0.00 | 0.00 | 0.00 | 97 | 1013.6 |
| 20260831113050 | 12 | 319 | 0.0 | 0.0 | 0.00 | 0.00 | 0.00 | 97 | 1013.4 |
| 20260831112549 | 12 | 319 | 0.0 | 0.0 | 0.00 | 0.00 | 0.00 | 96 | 1013.6 |
| 20260831112044 | 12 | 319 | 0.0 | 0.0 | 0.00 | 0.00 | 0.00 | 96 | 1013.5 |
| 20260831111540 | 12 | 319 | 0.0 | 0.0 | 0.00 | 0.00 | 0.00 | 96 | 1013.5 |
| 20260831111036 | 12 | 319 | 0.0 | 0.0 | 0.00 | 0.00 | 0.00 | 96 | 1013.8 |
| 20260831110531 | 12 | 319 | 0.0 | 0.0 | 0.00 | 0.00 | 0.00 | 96 | 1013.4 |
| 20260831110026 | 12 | 320 | 0.0 | 0.0 | 0.00 | 0.00 | 0.00 | 95 | 1013.6 |
| 20260831105525 | 13 | 320 | 0.0 | 0.0 | 0.00 | 0.00 | 0.00 | 95 | 1013.8 |
| 20260831105020 | 13 | 319 | 0.0 | 0.0 | 0.00 | 0.00 | 0.00 | 94 | 1013.6 |
| 20260831104517 | 13 | 320 | 0.0 | 0.0 | 0.00 | 0.00 | 0.00 | 94 | 1013.6 |
| 20260831104012 | 13 | 321 | 0.0 | 0.0 | 0.00 | 0.00 | 0.00 | 94 | 1013.7 |
| 20260831103507 | 13 | 321 | 0.0 | 0.0 | 0.00 | 0.00 | 0.00 | 93 | 1013.9 |
| 20260831103003 | 13 | 321 | 0.0 | 0.0 | 0.00 | 0.00 | 0.00 | 93 | 1013.7 |
| 20260831102457 | 13 | 322 | 0.0 | 0.0 | 0.00 | 0.00 | 0.00 | 93 | 1013.7 |
| 20260831101952 | 13 | 313 | 0.0 | 0.0 | 0.00 | 0.00 | 0.00 | 93 | 1013.7 |
| 20260831101447 | 13 | 310 | 0.0 | 0.0 | 0.00 | 0.00 | 0.00 | 93 | 1013.7 |
| 20260831100943 | 13 | 308 | 0.0 | 1.6 | 0.00 | 0.00 | 0.00 | 93 | 1013.8 |
| 20260831100439 | 13 | 302 | 0.0 | 0.0 | 0.00 | 0.00 | 0.00 | 93 | 1014.0 |
| 20260831095934 | 13 | 308 | 0.0 | 0.0 | 0.00 | 0.00 | 0.00 | 93 | 1014.0 |
| 20260831095433 | 13 | 315 | 0.0 | 0.0 | 0.00 | 0.00 | 0.00 | 93 | 1014.0 |
| 20260831094928 | 13 | 315 | 0.0 | 0.0 | 0.00 | 0.00 | 0.00 | 93 | 1014.1 |
| 20260831094424 | 13 | 318 | 0.0 | 0.0 | 0.00 | 0.00 | 0.00 | 92 | 1014.2 |
| 20260831093920 | 13 | 308 | 0.0 | 0.0 | 0.00 | 0.00 | 0.00 | 92 | 1014.0 |
| 20260831093414 | 13 | 309 | 0.0 | 0.0 | 0.00 | 0.00 | 0.00 | 91 | 1014.1 |
| 20260831092912 | 14 | 309 | 0.0 | 0.0 | 0.00 | 0.00 | 0.00 | 90 | 1014.2 |
| 20260831092407 | 14 | 309 | 0.0 | 0.0 | 0.00 | 0.00 | 0.00 | 90 | 1014.2 |
| 20260831091902 | 14 | 317 | 0.0 | 0.0 | 0.00 | 0.00 | 0.00 | 90 | 1014.5 |
| 20260831091357 | 14 | 292 | 0.0 | 1.6 | 0.00 | 0.00 | 0.00 | 91 | 1014.1 |
| 20260831090852 | 14 | 317 | 0.0 | 0.0 | 0.00 | 0.00 | 0.00 | 91 | 1014.4 |
| 20260831090348 | 13 | 288 | 0.0 | 1.6 | 0.00 | 0.00 | 0.00 | 92 | 1014.4 |
| 20260831085844 | 13 | 310 | 0.0 | 0.0 | 0.00 | 0.00 | 0.00 | 92 | 1014.3 |
| 20260831085338 | 13 | 311 | 0.0 | 0.0 | 0.00 | 0.00 | 0.00 | 91 | 1014.4 |
| 20260831084833 | 13 | 311 | 0.0 | 0.0 | 0.00 | 0.00 | 0.00 | 91 | 1014.3 |
| 20260831084329 | 13 | 310 | 0.0 | 0.0 | 0.00 | 0.00 | 0.00 | 92 | 1014.7 |
| 20260831083825 | 13 | 304 | 0.0 | 0.0 | 0.00 | 0.00 | 0.00 | 91 | 1014.6 |
| 20260831083321 | 13 | 303 | 0.0 | 0.0 | 0.00 | 0.00 | 0.00 | 91 | 1014.7 |
| 20260831082819 | 14 | 303 | 0.0 | 0.0 | 0.00 | 0.00 | 0.00 | 90 | 1014.6 |
| 20260831082314 | 14 | 303 | 0.0 | 0.0 | 0.00 | 0.00 | 0.00 | 90 | 1014.7 |
| 20260831081810 | 14 | 303 | 0.0 | 0.0 | 0.00 | 0.00 | 0.00 | 90 | 1014.8 |
| 20260831081305 | 14 | 303 | 1.6 | 1.6 | 0.00 | 0.00 | 0.00 | 90 | 1014.8 |
| 20260831080801 | 14 | 303 | 0.0 | 0.0 | 0.00 | 0.00 | 0.00 | 90 | 1015.0 |
| 20260831080255 | 14 | 303 | 0.0 | 0.0 | 0.00 | 0.00 | 0.00 | 89 | 1015.2 |
| 20260831075751 | 14 | 303 | 0.0 | 0.0 | 0.00 | 0.00 | 0.00 | 88 | 1015.1 |
| 20260831075247 | 15 | 303 | 0.0 | 0.0 | 0.00 | 0.00 | 0.00 | 86 | 1015.0 |
| 20260831074746 | 15 | 303 | 0.0 | 0.0 | 0.00 | 0.00 | 0.00 | 86 | 1015.2 |
| 20260831074240 | 15 | 303 | 0.0 | 0.0 | 0.00 | 0.00 | 0.00 | 85 | 1015.1 |
| 20260831073736 | 15 | 305 | 0.0 | 0.0 | 0.00 | 0.00 | 0.00 | 85 | 1015.2 |
| 20260831073235 | 15 | 300 | 0.0 | 0.0 | 0.00 | 0.00 | 0.00 | 84 | 1015.3 |
| 20260831072730 | 15 | 311 | 0.0 | 0.0 | 0.00 | 0.00 | 0.00 | 84 | 1015.1 |
| 20260831072227 | 15 | 310 | 0.0 | 0.0 | 0.00 | 0.00 | 0.00 | 83 | 1015.4 |
| 20260831071726 | 16 | 310 | 0.0 | 0.0 | 0.00 | 0.00 | 0.00 | 83 | 1015.3 |
| 20260831071221 | 16 | 319 | 0.0 | 0.0 | 0.00 | 0.00 | 0.00 | 82 | 1015.3 |
| 20260831070715 | 16 | 323 | 0.0 | 1.6 | 0.00 | 0.00 | 0.00 | 82 | 1015.6 |
| 20260831070209 | 16 | 302 | 0.0 | 1.6 | 0.00 | 0.00 | 0.00 | 82 | 1015.3 |
| 20260831065708 | 16 | 315 | 0.0 | 0.0 | 0.00 | 0.00 | 0.00 | 81 | 1015.5 |
| 20260831065207 | 16 | 294 | 0.0 | 0.0 | 0.00 | 0.00 | 0.00 | 80 | 1015.5 |
| 20260831064702 | 16 | 313 | 0.0 | 0.0 | 0.00 | 0.00 | 0.00 | 80 | 1015.7 |
| 20260831064157 | 16 | 307 | 0.0 | 0.0 | 0.00 | 0.00 | 0.00 | 79 | 1015.7 |
| 20260831063653 | 16 | 290 | 1.6 | 1.6 | 0.00 | 0.00 | 0.00 | 79 | 1015.6 |
| 20260831063148 | 16 | 328 | 0.0 | 0.0 | 0.00 | 0.00 | 0.00 | 79 | 1015.6 |
| 20260831062648 | 17 | 300 | 0.0 | 1.6 | 0.00 | 0.00 | 0.00 | 78 | 1015.7 |
| 20260831062142 | 17 | 314 | 0.0 | 0.0 | 0.00 | 0.00 | 0.00 | 78 | 1015.6 |
| 20260831061640 | 17 | 268 | 1.6 | 3.2 | 0.00 | 0.00 | 0.00 | 78 | 1015.8 |
| 20260831061136 | 17 | 306 | 1.6 | 1.6 | 0.00 | 0.00 | 0.00 | 77 | 1015.8 |
| 20260831060632 | 17 | 28 | 1.6 | 1.6 | 0.00 | 0.00 | 0.00 | 77 | 1015.8 |
| 20260831060132 | 17 | 317 | 0.0 | 0.0 | 0.00 | 0.00 | 0.00 | 77 | 1015.8 |
| 20260831055631 | 17 | 300 | 0.0 | 0.0 | 0.00 | 0.00 | 0.00 | 77 | 1016.0 |
| 20260831055127 | 17 | 294 | 0.0 | 1.6 | 0.00 | 0.00 | 0.00 | 76 | 1015.8 |
| 20260831054626 | 17 | 298 | 0.0 | 1.6 | 0.00 | 0.00 | 0.00 | 77 | 1015.9 |
| 20260831054120 | 17 | 302 | 1.6 | 1.6 | 0.00 | 0.00 | 0.00 | 76 | 1016.0 |
| 20260831053615 | 17 | 297 | 0.0 | 0.0 | 0.00 | 0.00 | 0.00 | 76 | 1016.0 |
| 20260831053114 | 17 | 314 | 0.0 | 0.0 | 0.00 | 0.00 | 0.00 | 76 | 1016.1 |
| 20260831052612 | 17 | 357 | 0.0 | 1.6 | 0.00 | 0.00 | 0.00 | 75 | 1016.1 |
| 20260831052107 | 17 | 314 | 0.0 | 1.6 | 0.00 | 0.00 | 0.00 | 75 | 1016.3 |
| 20260831051605 | 17 | 286 | 1.6 | 1.6 | 0.00 | 0.00 | 0.00 | 75 | 1016.2 |
| 20260831051104 | 17 | 308 | 0.0 | 1.6 | 0.00 | 0.00 | 0.00 | 74 | 1016.2 |
| 20260831050604 | 17 | 302 | 0.0 | 0.0 | 0.00 | 0.00 | 0.00 | 74 | 1016.4 |
| 20260831045557 | 17 | 308 | 0.0 | 0.0 | 0.00 | 0.00 | 0.00 | 74 | 1016.4 |
| 20260831045052 | 17 | 297 | 0.0 | 0.0 | 0.00 | 0.00 | 0.00 | 74 | 1016.5 |
| 20260831044548 | 17 | 328 | 0.0 | 1.6 | 0.00 | 0.00 | 0.00 | 74 | 1016.6 |
| 20260831044042 | 17 | 310 | 0.0 | 0.0 | 0.00 | 0.00 | 0.00 | 73 | 1016.8 |
| 20260831043537 | 17 | 297 | 0.0 | 1.6 | 0.00 | 0.00 | 0.00 | 74 | 1016.4 |
| 20260831043033 | 17 | 297 | 0.0 | 0.0 | 0.00 | 0.00 | 0.00 | 74 | 1016.6 |
| 20260831042532 | 17 | 317 | 0.0 | 0.0 | 0.00 | 0.00 | 0.00 | 73 | 1016.5 |
| 20260831042027 | 17 | 318 | 0.0 | 0.0 | 0.00 | 0.00 | 0.00 | 73 | 1016.9 |
| 20260831041522 | 17 | 329 | 0.0 | 1.6 | 0.00 | 0.00 | 0.00 | 73 | 1016.8 |
| 20260831041021 | 17 | 318 | 0.0 | 0.0 | 0.00 | 0.00 | 0.00 | 72 | 1016.8 |
| 20260831040516 | 17 | 319 | 0.0 | 0.0 | 0.00 | 0.00 | 0.00 | 72 | 1016.6 |
| 20260831040015 | 18 | 126 | 0.0 | 0.0 | 0.00 | 0.00 | 0.00 | 71 | 1016.7 |
| 20260831035508 | 18 | 312 | 0.0 | 0.0 | 0.00 | 0.00 | 0.00 | 70 | 1016.7 |
| 20260831035003 | 18 | 320 | 0.0 | 0.0 | 0.00 | 0.00 | 0.00 | 70 | 1016.8 |
| 20260831034457 | 18 | 305 | 0.0 | 0.0 | 0.00 | 0.00 | 0.00 | 70 | 1016.7 |
| 20260831033953 | 18 | 315 | 0.0 | 1.6 | 0.00 | 0.00 | 0.00 | 69 | 1016.7 |
| 20260831033448 | 18 | 299 | 0.0 | 0.0 | 0.00 | 0.00 | 0.00 | 69 | 1016.5 |
| 20260831032943 | 18 | 307 | 1.6 | 1.6 | 0.00 | 0.00 | 0.00 | 69 | 1016.6 |
| 20260831032438 | 18 | 312 | 0.0 | 1.6 | 0.00 | 0.00 | 0.00 | 68 | 1016.8 |
| 20260831031933 | 18 | 297 | 0.0 | 0.0 | 0.00 | 0.00 | 0.00 | 68 | 1016.8 |
| 20260831031433 | 18 | 295 | 0.0 | 1.6 | 0.00 | 0.00 | 0.00 | 67 | 1016.7 |
| 20260831030932 | 18 | 311 | 0.0 | 0.0 | 0.00 | 0.00 | 0.00 | 67 | 1016.9 |
| 20260831030431 | 19 | 310 | 0.0 | 0.0 | 0.00 | 0.00 | 0.00 | 66 | 1016.8 |
| 20260831025930 | 19 | 287 | 3.2 | 3.2 | 0.00 | 0.00 | 0.00 | 65 | 1016.9 |
| 20260831025429 | 19 | 309 | 0.0 | 0.0 | 0.00 | 0.00 | 0.00 | 65 | 1016.7 |
| 20260831024925 | 19 | 273 | 0.0 | 0.0 | 0.00 | 0.00 | 0.00 | 64 | 1016.9 |
| 20260831024424 | 19 | 302 | 0.0 | 1.6 | 0.00 | 0.00 | 0.00 | 64 | 1016.6 |
| 20260831023919 | 20 | 300 | 0.0 | 0.0 | 0.00 | 0.00 | 0.00 | 64 | 1016.9 |
| 20260831023418 | 20 | 305 | 0.0 | 1.6 | 0.00 | 0.00 | 0.00 | 63 | 1016.9 |
| 20260831022913 | 20 | 306 | 0.0 | 0.0 | 0.00 | 0.00 | 0.00 | 62 | 1016.9 |
| 20260831022412 | 20 | 309 | 0.0 | 0.0 | 0.00 | 0.00 | 0.00 | 63 | 1016.9 |
| 20260831021906 | 20 | 308 | 1.6 | 1.6 | 0.00 | 0.00 | 0.00 | 62 | 1017.0 |
| 20260831021406 | 20 | 316 | 0.0 | 0.0 | 0.00 | 0.00 | 0.00 | 61 | 1017.0 |
| 20260831020902 | 20 | 310 | 1.6 | 1.6 | 0.00 | 0.00 | 0.00 | 60 | 1017.0 |
| 20260831020401 | 20 | 336 | 3.2 | 3.2 | 0.00 | 0.00 | 0.00 | 60 | 1017.0 |
| 20260831015856 | 20 | 134 | 3.2 | 4.8 | 0.00 | 0.00 | 0.00 | 60 | 1017.2 |
| 20260831015352 | 20 | 306 | 3.2 | 3.2 | 0.00 | 0.00 | 0.00 | 59 | 1017.0 |
| 20260831014852 | 21 | 281 | 1.6 | 4.8 | 0.00 | 0.00 | 0.00 | 59 | 1017.1 |
| 20260831014347 | 21 | 308 | 0.0 | 1.6 | 0.00 | 0.00 | 0.00 | 59 | 1017.3 |
| 20260831013843 | 21 | 334 | 1.6 | 1.6 | 0.00 | 0.00 | 0.00 | 58 | 1017.2 |
| 20260831013338 | 21 | 309 | 3.2 | 3.2 | 0.00 | 0.00 | 0.00 | 57 | 1017.0 |
| 20260831012832 | 21 | 296 | 0.0 | 1.6 | 0.00 | 0.00 | 0.00 | 56 | 1017.0 |
| 20260831012328 | 21 | 308 | 0.0 | 1.6 | 0.00 | 0.00 | 0.00 | 56 | 1017.0 |
| 20260831011828 | 21 | 157 | 0.0 | 1.6 | 0.00 | 0.00 | 0.00 | 56 | 1017.3 |
| 20260831011323 | 21 | 306 | 0.0 | 0.0 | 0.00 | 0.00 | 0.00 | 55 | 1017.2 |
| 20260831010819 | 21 | 309 | 0.0 | 1.6 | 0.00 | 0.00 | 0.00 | 56 | 1017.4 |
| 20260831010318 | 21 | 303 | 0.0 | 1.6 | 0.00 | 0.00 | 0.00 | 56 | 1017.4 |
| 20260831005814 | 21 | 320 | 0.0 | 1.6 | 0.00 | 0.00 | 0.00 | 55 | 1017.5 |
| 20260831005310 | 21 | 318 | 3.2 | 4.8 | 0.00 | 0.00 | 0.00 | 55 | 1017.6 |
| 20260831004804 | 21 | 322 | 0.0 | 1.6 | 0.00 | 0.00 | 0.00 | 55 | 1017.6 |
| 20260831004301 | 21 | 247 | 1.6 | 3.2 | 0.00 | 0.00 | 0.00 | 55 | 1017.6 |
| 20260831003756 | 21 | 276 | 3.2 | 3.2 | 0.00 | 0.00 | 0.00 | 54 | 1017.7 |
| 20260831003252 | 21 | 323 | 0.0 | 1.6 | 0.00 | 0.00 | 0.00 | 54 | 1017.6 |
| 20260831002751 | 21 | 319 | 1.6 | 1.6 | 0.00 | 0.00 | 0.00 | 53 | 1017.8 |
| 20260831002250 | 21 | 288 | 1.6 | 1.6 | 0.00 | 0.00 | 0.00 | 52 | 1017.9 |
| 20260831001747 | 21 | 295 | 3.2 | 3.2 | 0.00 | 0.00 | 0.00 | 53 | 1017.7 |
| 20260831001241 | 21 | 274 | 1.6 | 1.6 | 0.00 | 0.00 | 0.00 | 52 | 1018.0 |
| 20260831000738 | 21 | 303 | 1.6 | 1.6 | 0.00 | 0.00 | 0.00 | 52 | 1017.7 |
| 20260831000233 | 21 | 296 | 3.2 | 4.8 | 0.00 | 0.00 | 0.00 | 54 | 1017.9 |
| 20260830235732 | 21 | 303 | 3.2 | 3.2 | 0.00 | 0.00 | 0.00 | 55 | 1018.0 |
| 20260830235227 | 21 | 294 | 3.2 | 3.2 | 0.00 | 0.00 | 0.00 | 53 | 1017.8 |
| 20260830234722 | 21 | 302 | 1.6 | 1.6 | 0.00 | 0.00 | 0.00 | 53 | 1018.0 |
| 20260830234218 | 21 | 304 | 1.6 | 3.2 | 0.00 | 0.00 | 0.00 | 53 | 1018.0 |
| 20260830233713 | 21 | 306 | 4.8 | 4.8 | 0.00 | 0.00 | 0.00 | 53 | 1018.0 |
| 20260830233209 | 21 | 281 | 1.6 | 1.6 | 0.00 | 0.00 | 0.00 | 53 | 1018.4 |
| 20260830232704 | 21 | 310 | 1.6 | 1.6 | 0.00 | 0.00 | 0.00 | 53 | 1018.1 |
| 20260830232200 | 21 | 301 | 0.0 | 1.6 | 0.00 | 0.00 | 0.00 | 54 | 1018.2 |
| 20260830231656 | 21 | 305 | 1.6 | 3.2 | 0.00 | 0.00 | 0.00 | 54 | 1018.4 |
| 20260830231155 | 21 | 301 | 1.6 | 1.6 | 0.00 | 0.00 | 0.00 | 53 | 1018.3 |
| 20260830230650 | 21 | 288 | 3.2 | 3.2 | 0.00 | 0.00 | 0.00 | 53 | 1018.2 |
| 20260830230145 | 21 | 269 | 1.6 | 1.6 | 0.00 | 0.00 | 0.00 | 54 | 1018.2 |
| 20260830225640 | 21 | 239 | 1.6 | 3.2 | 0.00 | 0.00 | 0.00 | 53 | 1018.4 |
| 20260830225135 | 21 | 304 | 3.2 | 3.2 | 0.00 | 0.00 | 0.00 | 53 | 1018.4 |
| 20260830224634 | 21 | 274 | 1.6 | 1.6 | 0.00 | 0.00 | 0.00 | 54 | 1018.7 |
| 20260830224130 | 21 | 45 | 4.8 | 4.8 | 0.00 | 0.00 | 0.00 | 54 | 1018.5 |
| 20260830223627 | 21 | 310 | 3.2 | 3.2 | 0.00 | 0.00 | 0.00 | 54 | 1018.9 |
| 20260830223126 | 21 | 299 | 1.6 | 1.6 | 0.00 | 0.00 | 0.00 | 55 | 1018.8 |
| 20260830222620 | 21 | 299 | 1.6 | 3.2 | 0.00 | 0.00 | 0.00 | 54 | 1019.1 |
| 20260830222117 | 21 | 338 | 1.6 | 1.6 | 0.00 | 0.00 | 0.00 | 54 | 1019.0 |
| 20260830221612 | 21 | 295 | 3.2 | 8.0 | 0.00 | 0.00 | 0.00 | 54 | 1019.2 |
| 20260830221108 | 21 | 309 | 0.0 | 0.0 | 0.00 | 0.00 | 0.00 | 55 | 1019.4 |
| 20260830220603 | 21 | 288 | 1.6 | 3.2 | 0.00 | 0.00 | 0.00 | 53 | 1019.3 |
| 20260830220056 | 21 | 288 | 3.2 | 8.0 | 0.00 | 0.00 | 0.00 | 54 | 1019.3 |
| 20260830215555 | 21 | 322 | 1.6 | 3.2 | 0.00 | 0.00 | 0.00 | 54 | 1019.6 |
| 20260830215049 | 21 | 281 | 3.2 | 4.8 | 0.00 | 0.00 | 0.00 | 54 | 1019.6 |
| 20260830214544 | 21 | 274 | 4.8 | 4.8 | 0.00 | 0.00 | 0.00 | 53 | 1019.5 |
| 20260830214039 | 21 | 211 | 4.8 | 4.8 | 0.00 | 0.00 | 0.00 | 54 | 1019.6 |
| 20260830213534 | 21 | 305 | 1.6 | 1.6 | 0.00 | 0.00 | 0.00 | 54 | 1019.7 |
| 20260830213029 | 21 | 79 | 8.0 | 11.3 | 0.00 | 0.00 | 0.00 | 54 | 1019.8 |
| 20260830212525 | 21 | 299 | 1.6 | 1.6 | 0.00 | 0.00 | 0.00 | 54 | 1020.1 |
| 20260830212020 | 20 | 312 | 3.2 | 3.2 | 0.00 | 0.00 | 0.00 | 55 | 1019.9 |
| 20260830211515 | 20 | 161 | 1.6 | 3.2 | 0.00 | 0.00 | 0.00 | 56 | 1020.1 |
| 20260830211014 | 20 | 302 | 1.6 | 1.6 | 0.00 | 0.00 | 0.00 | 56 | 1020.0 |
| 20260830210509 | 21 | 2 | 3.2 | 3.2 | 0.00 | 0.00 | 0.00 | 54 | 1020.0 |
| 20260830210009 | 20 | 269 | 1.6 | 3.2 | 0.00 | 0.00 | 0.00 | 56 | 1020.1 |
| 20260830205506 | 20 | 303 | 1.6 | 1.6 | 0.00 | 0.00 | 0.00 | 54 | 1019.9 |
| 20260830205003 | 20 | 323 | 0.0 | 1.6 | 0.00 | 0.00 | 0.00 | 55 | 1019.9 |
| 20260830204501 | 20 | 300 | 1.6 | 1.6 | 0.00 | 0.00 | 0.00 | 55 | 1020.1 |
| 20260830203955 | 20 | 311 | 1.6 | 1.6 | 0.00 | 0.00 | 0.00 | 54 | 1020.4 |
| 20260830203452 | 20 | 304 | 0.0 | 1.6 | 0.00 | 0.00 | 0.00 | 56 | 1020.5 |
| 20260830202951 | 20 | 306 | 0.0 | 0.0 | 0.00 | 0.00 | 0.00 | 56 | 1020.5 |
| 20260830202446 | 20 | 307 | 1.6 | 1.6 | 0.00 | 0.00 | 0.00 | 55 | 1020.5 |
| 20260830201943 | 20 | 260 | 0.0 | 1.6 | 0.00 | 0.00 | 0.00 | 57 | 1020.6 |
| 20260830201441 | 20 | 163 | 4.8 | 8.0 | 0.00 | 0.00 | 0.00 | 55 | 1020.8 |
| 20260830200937 | 20 | 282 | 0.0 | 0.0 | 0.00 | 0.00 | 0.00 | 56 | 1020.7 |
| 20260830200436 | 20 | 106 | 3.2 | 3.2 | 0.00 | 0.00 | 0.00 | 56 | 1020.8 |
| 20260830195931 | 20 | 200 | 3.2 | 3.2 | 0.00 | 0.00 | 0.00 | 54 | 1020.7 |
| 20260830195426 | 20 | 301 | 0.0 | 0.0 | 0.00 | 0.00 | 0.00 | 57 | 1020.6 |
| 20260830194925 | 19 | 304 | 1.6 | 1.6 | 0.00 | 0.00 | 0.00 | 57 | 1020.9 |
| 20260830194424 | 20 | 304 | 1.6 | 1.6 | 0.00 | 0.00 | 0.00 | 55 | 1020.8 |
| 20260830193924 | 20 | 332 | 4.8 | 4.8 | 0.00 | 0.00 | 0.00 | 54 | 1020.9 |
| 20260830193423 | 20 | 5 | 1.6 | 1.6 | 0.00 | 0.00 | 0.00 | 55 | 1020.8 |
| 20260830192919 | 20 | 169 | 1.6 | 1.6 | 0.00 | 0.00 | 0.00 | 55 | 1020.7 |
| 20260830192414 | 20 | 287 | 3.2 | 4.8 | 0.00 | 0.00 | 0.00 | 56 | 1021.0 |
| 20260830191909 | 20 | 307 | 1.6 | 1.6 | 0.00 | 0.00 | 0.00 | 56 | 1021.2 |
| 20260830191408 | 19 | 312 | 3.2 | 4.8 | 0.00 | 0.00 | 0.00 | 58 | 1021.2 |
| 20260830190904 | 19 | 298 | 4.8 | 4.8 | 0.00 | 0.00 | 0.00 | 59 | 1021.1 |
| 20260830190359 | 18 | 208 | 1.6 | 3.2 | 0.00 | 0.00 | 0.00 | 61 | 1021.3 |
| 20260830185858 | 18 | 311 | 1.6 | 1.6 | 0.00 | 0.00 | 0.00 | 61 | 1021.3 |
| 20260830185354 | 18 | 311 | 0.0 | 1.6 | 0.00 | 0.00 | 0.00 | 62 | 1021.1 |
| 20260830184848 | 18 | 303 | 1.6 | 3.2 | 0.00 | 0.00 | 0.00 | 63 | 1021.5 |
| 20260830184348 | 18 | 297 | 1.6 | 3.2 | 0.00 | 0.00 | 0.00 | 62 | 1021.3 |
| 20260830183843 | 17 | 315 | 0.0 | 1.6 | 0.00 | 0.00 | 0.00 | 65 | 1021.3 |
| 20260830183343 | 18 | 300 | 3.2 | 3.2 | 0.00 | 0.00 | 0.00 | 64 | 1021.5 |
| 20260830182838 | 17 | 309 | 0.0 | 0.0 | 0.00 | 0.00 | 0.00 | 66 | 1021.6 |
| 20260830182334 | 18 | 302 | 1.6 | 3.2 | 0.00 | 0.00 | 0.00 | 64 | 1021.6 |
| 20260830181830 | 17 | 321 | 1.6 | 3.2 | 0.00 | 0.00 | 0.00 | 66 | 1021.6 |
| 20260830181325 | 17 | 305 | 0.0 | 0.0 | 0.00 | 0.00 | 0.00 | 67 | 1021.5 |
| 20260830180824 | 17 | 308 | 1.6 | 1.6 | 0.00 | 0.00 | 0.00 | 66 | 1021.5 |
| 20260830180319 | 17 | 337 | 0.0 | 0.0 | 0.00 | 0.00 | 0.00 | 64 | 1021.0 |
| 20260830175818 | 17 | 310 | 0.0 | 0.0 | 0.00 | 0.00 | 0.00 | 65 | 1021.3 |
| 20260830175313 | 17 | 302 | 1.6 | 1.6 | 0.00 | 0.00 | 0.00 | 64 | 1021.3 |
| 20260830174808 | 18 | 232 | 1.6 | 1.6 | 0.00 | 0.00 | 0.00 | 65 | 1021.4 |
| 20260830174304 | 17 | 281 | 1.6 | 1.6 | 0.00 | 0.00 | 0.00 | 67 | 1021.5 |
| 20260830173803 | 17 | 345 | 1.6 | 1.6 | 0.00 | 0.00 | 0.00 | 68 | 1021.5 |
| 20260830173259 | 17 | 338 | 1.6 | 1.6 | 0.00 | 0.00 | 0.00 | 68 | 1021.5 |
| 20260830172755 | 16 | 337 | 0.0 | 0.0 | 0.00 | 0.00 | 0.00 | 70 | 1021.6 |
| 20260830172252 | 16 | 300 | 0.0 | 0.0 | 0.00 | 0.00 | 0.00 | 75 | 1021.5 |
| 20260830171747 | 16 | 322 | 0.0 | 0.0 | 0.00 | 0.00 | 0.00 | 76 | 1021.4 |
| 20260830171242 | 16 | 303 | 0.0 | 0.0 | 0.00 | 0.00 | 0.00 | 77 | 1021.4 |
| 20260830170737 | 16 | 313 | 0.0 | 1.6 | 0.00 | 0.00 | 0.00 | 77 | 1021.5 |
| 20260830170236 | 16 | 304 | 1.6 | 1.6 | 0.00 | 0.00 | 0.00 | 76 | 1021.4 |
| 20260830165735 | 16 | 311 | 1.6 | 1.6 | 0.00 | 0.00 | 0.00 | 76 | 1021.5 |
| 20260830165231 | 17 | 179 | 1.6 | 3.2 | 0.00 | 0.00 | 0.00 | 74 | 1021.3 |
| 20260830164727 | 17 | 266 | 1.6 | 1.6 | 0.00 | 0.00 | 0.00 | 74 | 1021.4 |
| 20260830164223 | 16 | 317 | 0.0 | 0.0 | 0.00 | 0.00 | 0.00 | 77 | 1021.5 |
| 20260830163720 | 16 | 323 | 0.0 | 1.6 | 0.00 | 0.00 | 0.00 | 77 | 1021.4 |
| 20260830163215 | 16 | 313 | 3.2 | 3.2 | 0.00 | 0.00 | 0.00 | 76 | 1021.5 |
| 20260830162709 | 17 | 195 | 3.2 | 3.2 | 0.00 | 0.00 | 0.00 | 73 | 1021.5 |
| 20260830162205 | 16 | 319 | 0.0 | 0.0 | 0.00 | 0.00 | 0.00 | 78 | 1021.9 |
| 20260830161700 | 17 | 309 | 1.6 | 1.6 | 0.00 | 0.00 | 0.00 | 75 | 1021.8 |
| 20260830161154 | 16 | 299 | 0.0 | 0.0 | 0.00 | 0.00 | 0.00 | 75 | 1021.9 |
| 20260830160651 | 16 | 306 | 1.6 | 1.6 | 0.00 | 0.00 | 0.00 | 77 | 1021.9 |
| 20260830160145 | 16 | 323 | 1.6 | 1.6 | 0.00 | 0.00 | 0.00 | 77 | 1022.0 |
| 20260830155642 | 16 | 315 | 1.6 | 1.6 | 0.00 | 0.00 | 0.00 | 76 | 1021.8 |
| 20260830155137 | 17 | 356 | 0.0 | 0.0 | 0.00 | 0.00 | 0.00 | 75 | 1021.8 |
| 20260830154632 | 16 | 32 | 1.6 | 1.6 | 0.00 | 0.00 | 0.00 | 77 | 1021.6 |
| 20260830154128 | 16 | 2 | 0.0 | 1.6 | 0.00 | 0.00 | 0.00 | 75 | 1021.9 |
| 20260830153625 | 17 | 358 | 0.0 | 1.6 | 0.00 | 0.00 | 0.00 | 75 | 1021.9 |
| 20260830153124 | 16 | 279 | 0.0 | 0.0 | 0.00 | 0.00 | 0.00 | 76 | 1021.9 |
| 20260830152623 | 16 | 318 | 0.0 | 0.0 | 0.00 | 0.00 | 0.00 | 75 | 1022.0 |
| 20260830152123 | 16 | 305 | 0.0 | 0.0 | 0.00 | 0.00 | 0.00 | 78 | 1022.0 |
| 20260830151618 | 15 | 305 | 0.0 | 0.0 | 0.00 | 0.00 | 0.00 | 79 | 1022.2 |
| 20260830151113 | 15 | 304 | 0.0 | 0.0 | 0.00 | 0.00 | 0.00 | 81 | 1022.1 |
| 20260830150612 | 13 | 304 | 0.0 | 0.0 | 0.00 | 0.00 | 0.00 | 85 | 1022.2 |
| 20260830150107 | 12 | 304 | 0.0 | 0.0 | 0.00 | 0.00 | 0.00 | 90 | 1022.0 |
| 20260830145606 | 12 | 303 | 0.0 | 0.0 | 0.00 | 0.00 | 0.00 | 92 | 1022.1 |
| 20260830145101 | 11 | 306 | 0.0 | 0.0 | 0.00 | 0.00 | 0.00 | 98 | 1021.9 |
| 20260830144557 | 11 | 306 | 0.0 | 0.0 | 0.00 | 0.00 | 0.00 | 99 | 1022.0 |
| 20260830144053 | 10 | 306 | 0.0 | 0.0 | 0.00 | 0.00 | 0.00 | 99 | 1022.1 |
| 20260830143549 | 10 | 306 | 0.0 | 0.0 | 0.00 | 0.00 | 0.00 | 99 | 1022.3 |
| 20260830143047 | 10 | 306 | 0.0 | 0.0 | 0.00 | 0.00 | 0.00 | 99 | 1022.2 |
| 20260830142542 | 9 | 306 | 0.0 | 0.0 | 0.00 | 0.00 | 0.00 | 99 | 1022.0 |
| 20260830142037 | 9 | 306 | 0.0 | 0.0 | 0.00 | 0.00 | 0.00 | 99 | 1021.9 |
| 20260830141532 | 9 | 306 | 0.0 | 0.0 | 0.00 | 0.00 | 0.00 | 99 | 1022.2 |
| 20260830141027 | 9 | 306 | 0.0 | 0.0 | 0.00 | 0.00 | 0.00 | 99 | 1022.1 |
| 20260830140526 | 9 | 306 | 0.0 | 0.0 | 0.00 | 0.00 | 0.00 | 99 | 1022.1 |
| 20260830140023 | 9 | 306 | 0.0 | 0.0 | 0.00 | 0.00 | 0.00 | 99 | 1022.0 |
| 20260830135512 | 9 | 306 | 0.0 | 0.0 | 0.00 | 0.00 | 0.00 | 99 | 1022.1 |
| 20260830135007 | 9 | 306 | 0.0 | 0.0 | 0.00 | 0.00 | 0.00 | 99 | 1022.0 |
| 20260830134503 | 9 | 306 | 0.0 | 0.0 | 0.00 | 0.00 | 0.00 | 99 | 1021.8 |
| 20260830133958 | 9 | 306 | 0.0 | 0.0 | 0.00 | 0.00 | 0.00 | 99 | 1021.9 |
| 20260830133454 | 9 | 306 | 0.0 | 0.0 | 0.00 | 0.00 | 0.00 | 99 | 1021.8 |
| 20260830132948 | 9 | 306 | 0.0 | 0.0 | 0.00 | 0.00 | 0.00 | 99 | 1022.0 |
| 20260830132444 | 9 | 306 | 0.0 | 0.0 | 0.00 | 0.00 | 0.00 | 99 | 1021.9 |
| 20260830131943 | 9 | 306 | 0.0 | 0.0 | 0.00 | 0.00 | 0.00 | 99 | 1022.0 |
| 20260830131437 | 9 | 306 | 0.0 | 0.0 | 0.00 | 0.00 | 0.00 | 99 | 1021.8 |
| 20260830130932 | 8 | 306 | 0.0 | 0.0 | 0.00 | 0.00 | 0.00 | 99 | 1021.6 |
| 20260830130428 | 8 | 306 | 0.0 | 0.0 | 0.00 | 0.00 | 0.00 | 99 | 1021.6 |
| 20260830125926 | 8 | 306 | 0.0 | 0.0 | 0.00 | 0.00 | 0.00 | 99 | 1021.9 |
| 20260830125422 | 8 | 306 | 0.0 | 0.0 | 0.00 | 0.00 | 0.00 | 99 | 1021.6 |
| 20260830124920 | 8 | 306 | 0.0 | 0.0 | 0.00 | 0.00 | 0.00 | 99 | 1021.5 |
| 20260830124415 | 8 | 306 | 0.0 | 0.0 | 0.00 | 0.00 | 0.00 | 99 | 1021.6 |
| 20260830123912 | 8 | 306 | 0.0 | 0.0 | 0.00 | 0.00 | 0.00 | 99 | 1021.5 |
| 20260830123408 | 8 | 306 | 0.0 | 0.0 | 0.00 | 0.00 | 0.00 | 99 | 1021.4 |
| 20260830122906 | 8 | 306 | 0.0 | 0.0 | 0.00 | 0.00 | 0.00 | 99 | 1021.6 |
| 20260830122400 | 8 | 306 | 0.0 | 0.0 | 0.00 | 0.00 | 0.00 | 99 | 1021.6 |
| 20260830121855 | 8 | 306 | 0.0 | 0.0 | 0.00 | 0.00 | 0.00 | 99 | 1021.5 |
| 20260830121355 | 8 | 306 | 0.0 | 0.0 | 0.00 | 0.00 | 0.00 | 99 | 1021.5 |
| 20260830120850 | 8 | 306 | 0.0 | 0.0 | 0.00 | 0.00 | 0.00 | 99 | 1021.5 |
| 20260830120346 | 8 | 306 | 0.0 | 0.0 | 0.00 | 0.00 | 0.00 | 99 | 1021.4 |
| 20260830115842 | 8 | 306 | 0.0 | 0.0 | 0.00 | 0.00 | 0.00 | 99 | 1021.4 |